Daleville, AL

6:46 AM CDT on August 26, 2016 (GMT -0500)
Cairns Army Air Field

Weather History for KOZR - April, 2013

Change the Weather History Date:

Friday, April 19, 2013

  Actual Average Record
Temperature  
Mean Temperature 62 °F -  
Max Temperature 77 °F 74 °F 89 °F (2006)
Min Temperature 48 °F 52 °F 35 °F (2001)
Degree Days  
Heating Degree Days 2    
Growing Degree Days 12 (Base 50)    
Moisture  
Dew Point 59 °F    
Average Humidity 90    
Maximum Humidity 95    
Minimum Humidity 77    
Precipitation  
Precipitation 0.89 in - - ()
Sea Level Pressure  
Sea Level Pressure 29.95 in    
Wind  
Wind Speed 11 mph (WNW)    
Max Wind Speed 24 mph    
Max Gust Speed 37 mph    
Visibility 9 miles    
Events Fog , Rain , Thunderstorm    
Averages and records for this station are not official NWS values.
T = Trace of Precipitation, MM = Missing Value Source: NWS Daily Summary

Daily Weather History Graph

Daily Weather History Graph

Search for Another Location

Airport or City:

Trip Planner

Search our weather history database for the weather conditions in past years. The results will help you decide how hot, cold, wet, or windy it might be!

Date:

Astronomy

Apr. 19, 2013 Rise Set
Actual Time 6:10 AM CDT 7:14 PM CDT
Civil Twilight 5:44 AM CDT 7:39 PM CDT
Nautical Twilight 5:15 AM CDT 8:09 PM CDT
Astronomical Twilight 4:44 AM CDT 8:39 PM CDT
Moon 1:21 PM CDT (4/19) 2:00 AM CDT (4/19)
Length of Visible Light 13h 54m
Length of Day
13h 04m
First Quarter, 62% of the Moon is Illuminated
Apr 19
First Quarter
Apr 25
Full
May 2
Last Quarter
May 9
New
May 17
First Quarter

Hourly Weather History & Observations

Time (CDT) Temp. Dew Point Humidity Pressure Visibility Wind Dir Wind Speed Gust Speed Precip Events Conditions
12:53 AM 69.8 °F 68.0 °F 94% 29.91 in 10.0 mi South 9.2 mph - N/A   Mostly Cloudy
12:58 AM 70.0 °F 67.8 °F 93% 29.90 in 10.0 mi SSE 10.4 mph - N/A   Mostly Cloudy
1:18 AM 69.8 °F 68.0 °F 94% 29.89 in 10.0 mi SSE 8.1 mph - N/A   Overcast
1:33 AM 69.8 °F 68.0 °F 94% 29.89 in 10.0 mi SSE 9.2 mph - N/A   Overcast
1:58 AM 70.2 °F 68.0 °F 93% 29.88 in 10.0 mi South 9.2 mph - N/A   Overcast
2:58 AM 70.9 °F 68.7 °F 93% 29.87 in 10.0 mi South 9.2 mph - N/A   Overcast
3:58 AM 71.4 °F 69.3 °F 93% 29.86 in 10.0 mi South 10.4 mph - N/A   Overcast
4:58 AM 71.4 °F 69.6 °F 94% 29.87 in 10.0 mi South 8.1 mph - N/A   Overcast
5:23 AM 71.6 °F 69.8 °F 94% 29.87 in 10.0 mi South 9.2 mph - N/A   Overcast
5:43 AM 71.6 °F 69.8 °F 94% 29.88 in 10.0 mi South 6.9 mph - N/A   Overcast
5:58 AM 72.0 °F 70.2 °F 94% 29.88 in 10.0 mi South 10.4 mph - N/A   Overcast
6:10 AM 71.6 °F 69.8 °F 94% 29.88 in 10.0 mi South 9.2 mph - N/A   Light Drizzle
6:17 AM 71.6 °F 69.8 °F 94% 29.88 in 10.0 mi South 8.1 mph - N/A   Overcast
6:57 AM 71.6 °F 69.8 °F 94% 29.89 in 10.0 mi SSE 9.2 mph - N/A   Mostly Cloudy
6:58 AM 72.0 °F 70.3 °F 95% 29.89 in 10.0 mi SSE 8.1 mph - 0.00 in   Mostly Cloudy
7:03 AM 71.6 °F 69.8 °F 94% 29.89 in 10.0 mi South 8.1 mph - N/A   Mostly Cloudy
7:18 AM 73.4 °F 71.6 °F 94% 29.89 in 10.0 mi South 9.2 mph - N/A   Mostly Cloudy
7:53 AM 73.4 °F 69.8 °F 88% 29.88 in 10.0 mi SSE 8.1 mph - N/A   Overcast
7:58 AM 73.0 °F 70.7 °F 92% 29.88 in 10.0 mi SSE 8.1 mph - N/A   Overcast
8:33 AM 75.2 °F 71.6 °F 89% 29.89 in 10.0 mi South 11.5 mph - N/A   Mostly Cloudy
8:38 AM 75.2 °F 71.6 °F 89% 29.89 in 10.0 mi South 13.8 mph - N/A   Mostly Cloudy
8:43 AM 75.2 °F 71.6 °F 89% 29.89 in 10.0 mi South 10.4 mph - N/A   Mostly Cloudy
8:58 AM 75.9 °F 71.2 °F 85% 29.88 in 10.0 mi South 15.0 mph - N/A   Mostly Cloudy
9:13 AM 77.0 °F 71.6 °F 83% 29.88 in 10.0 mi South 16.1 mph 23.0 mph N/A   Mostly Cloudy
9:18 AM 77.0 °F 71.6 °F 83% 29.88 in 10.0 mi South 18.4 mph 23.0 mph N/A   Mostly Cloudy
9:46 AM 77.0 °F 71.6 °F 83% 29.87 in 10.0 mi South 13.8 mph - N/A Rain Light Rain
9:53 AM 77.0 °F 71.6 °F 83% 29.87 in 2.5 mi South 18.4 mph - N/A Rain Light Rain
9:58 AM 75.2 °F 71.6 °F 89% 29.87 in 1.2 mi SSW 19.6 mph 26.5 mph 0.13 in Rain Heavy Rain
10:08 AM 73.4 °F 71.6 °F 94% 29.88 in 4.0 mi SSW 13.8 mph 31.1 mph N/A Rain Light Rain
10:10 AM 75.2 °F 71.6 °F 89% 29.88 in 9.0 mi SSW 12.7 mph 31.1 mph N/A   Overcast
10:14 AM 75.2 °F 71.6 °F 89% 29.89 in 10.0 mi WSW 16.1 mph - N/A   Overcast
10:16 AM 75.2 °F 71.6 °F 89% 29.89 in 10.0 mi West 23.0 mph 31.1 mph N/A   Overcast
10:17 AM 75.2 °F 71.6 °F 89% 29.89 in 10.0 mi WNW 24.2 mph 31.1 mph N/A   Overcast
10:18 AM 75.2 °F 69.8 °F 83% 29.89 in 10.0 mi NW 24.2 mph 34.5 mph N/A Rain Light Rain
10:21 AM 69.8 °F 64.4 °F 83% 29.92 in 9.0 mi NW 17.3 mph 36.8 mph N/A Rain , Thunderstorm Light Thunderstorms and Rain
10:26 AM 66.2 °F 60.8 °F 83% 29.92 in 2.5 mi NW 20.7 mph 36.8 mph N/A Rain , Thunderstorm Heavy Thunderstorms and Rain
10:31 AM 62.6 °F 59.0 °F 88% 29.92 in 0.5 mi NW 20.7 mph 27.6 mph N/A Fog , Rain , Thunderstorm Heavy Thunderstorms and Rain
10:36 AM 60.8 °F 59.0 °F 94% 29.93 in 0.5 mi NW 23.0 mph 28.8 mph N/A Fog , Rain Heavy Rain
10:41 AM 60.8 °F 59.0 °F 94% 29.93 in 3.0 mi NW 17.3 mph 33.4 mph N/A Rain Light Rain
10:46 AM 60.8 °F 59.0 °F 94% 29.94 in 6.0 mi NW 17.3 mph 33.4 mph N/A Rain Heavy Rain
10:51 AM 60.8 °F 59.0 °F 94% 29.94 in 6.0 mi NW 17.3 mph 23.0 mph N/A Rain Light Rain
10:56 AM 60.8 °F 59.0 °F 94% 29.95 in 10.0 mi NW 20.7 mph 24.2 mph N/A Rain Light Rain
10:58 AM 60.8 °F 59.2 °F 94% 29.96 in 10.0 mi NW 18.4 mph 24.2 mph 0.42 in Rain Light Rain
11:05 AM 60.8 °F 59.0 °F 94% 29.96 in 10.0 mi NW 18.4 mph 29.9 mph N/A   Overcast
11:15 AM 59.0 °F 57.2 °F 94% 29.96 in 10.0 mi NW 19.6 mph 25.3 mph N/A   Overcast
11:35 AM 57.2 °F 55.4 °F 94% 29.96 in 10.0 mi NW 10.4 mph 25.3 mph N/A   Overcast
11:45 AM 57.2 °F 55.4 °F 94% 29.98 in 10.0 mi NW 15.0 mph 23.0 mph N/A   Overcast
11:55 AM 57.2 °F 55.4 °F 94% 29.97 in 10.0 mi NW 13.8 mph 23.0 mph N/A   Overcast
11:58 AM 56.8 °F 54.7 °F 92% 29.98 in 10.0 mi NW 12.7 mph 23.0 mph 0.00 in   Overcast
12:08 PM 57.2 °F 55.4 °F 94% 29.97 in 10.0 mi NW 13.8 mph 18.4 mph N/A   Overcast
12:33 PM 57.2 °F 53.6 °F 88% 29.98 in 10.0 mi NNW 16.1 mph 21.9 mph N/A   Overcast
12:53 PM 55.4 °F 50.0 °F 82% 29.98 in 10.0 mi NW 16.1 mph 25.3 mph N/A   Overcast
12:58 PM 55.9 °F 49.6 °F 79% 29.99 in 10.0 mi NW 13.8 mph 25.3 mph N/A   Mostly Cloudy
1:03 PM 55.4 °F 50.0 °F 82% 29.99 in 10.0 mi NW 12.7 mph - N/A   Mostly Cloudy
1:10 PM 55.4 °F 50.0 °F 82% 29.98 in 10.0 mi NW 10.4 mph - N/A Rain Light Rain
1:32 PM 55.4 °F 50.0 °F 82% 29.98 in 10.0 mi WNW 10.4 mph - N/A   Scattered Clouds
1:37 PM 55.4 °F 48.2 °F 77% 29.99 in 10.0 mi WNW 10.4 mph - N/A Rain Light Rain
1:52 PM 53.6 °F 50.0 °F 88% 30.00 in 10.0 mi WNW 13.8 mph - N/A Rain Light Rain
1:57 PM 53.6 °F 48.2 °F 82% 30.00 in 10.0 mi WNW 17.3 mph 24.2 mph N/A Rain Light Rain
1:58 PM 53.8 °F 48.4 °F 82% 30.01 in 10.0 mi WNW 16.1 mph 24.2 mph 0.00 in Rain Light Rain
2:53 PM 51.8 °F 48.2 °F 88% 30.01 in 10.0 mi NW 10.4 mph 20.7 mph N/A Rain Light Rain
2:58 PM 51.4 °F 48.6 °F 90% 30.01 in 10.0 mi NW 9.2 mph 17.3 mph 0.09 in Rain Light Rain
3:03 PM 51.8 °F 48.2 °F 88% 30.00 in 10.0 mi NW 9.2 mph 17.3 mph N/A Rain Light Rain
3:08 PM 51.8 °F 48.2 °F 88% 29.99 in 10.0 mi NW 10.4 mph - N/A Rain Light Rain
3:19 PM 51.8 °F 50.0 °F 94% 29.96 in 10.0 mi NNW 10.4 mph - N/A   Mostly Cloudy
3:32 PM 51.8 °F 50.0 °F 94% 29.98 in 10.0 mi NW 9.2 mph - N/A   Light Drizzle
3:37 PM 51.8 °F 50.0 °F 94% 29.97 in 10.0 mi NNW 8.1 mph - N/A Rain Light Rain
3:42 PM 51.8 °F 50.0 °F 94% 29.98 in 10.0 mi NNW 9.2 mph - N/A Rain Light Rain
3:47 PM 51.8 °F 50.0 °F 94% 29.98 in 10.0 mi NNW 8.1 mph - N/A Rain Light Rain
3:57 PM 51.8 °F 50.0 °F 94% 29.96 in 10.0 mi North 8.1 mph - N/A Rain Light Rain
3:58 PM 51.8 °F 49.8 °F 93% 29.97 in 10.0 mi North 8.1 mph - 0.02 in Rain Light Rain
4:01 PM 51.8 °F 50.0 °F 94% 29.95 in 10.0 mi North 9.2 mph - N/A   Overcast
4:13 PM 51.8 °F 50.0 °F 94% 29.96 in 10.0 mi North 9.2 mph - N/A   Light Drizzle
4:23 PM 51.8 °F 48.2 °F 88% 29.96 in 10.0 mi North 8.1 mph - N/A   Light Drizzle
4:24 PM 51.8 °F 48.2 °F 88% 29.96 in 10.0 mi North 8.1 mph - N/A   Mostly Cloudy
4:29 PM 51.8 °F 48.2 °F 88% 29.97 in 10.0 mi NNW 9.2 mph - N/A   Mostly Cloudy
4:45 PM 51.8 °F 48.2 °F 88% 29.99 in 10.0 mi NNW 6.9 mph - N/A Rain Light Rain
4:58 PM 50.7 °F 47.8 °F 90% 30.02 in 10.0 mi WNW 9.2 mph - 0.00 in Rain Light Rain
5:58 PM 49.1 °F 46.6 °F 91% 30.03 in 10.0 mi NW 5.8 mph - 0.05 in Rain Light Rain
6:58 PM 49.1 °F 47.1 °F 93% 30.02 in 10.0 mi North 4.6 mph - 0.08 in Rain Light Rain
7:58 PM 48.7 °F 47.1 °F 94% 30.06 in 10.0 mi Calm Calm - 0.10 in Rain Light Rain
7:59 PM 48.2 °F 46.4 °F 93% 30.06 in 10.0 mi Calm Calm - N/A   Mostly Cloudy
8:58 PM 49.3 °F 47.8 °F 95% 30.09 in 10.0 mi West 2.3 mph - 0.00 in   Clear
9:58 PM 49.3 °F 47.7 °F 94% 30.13 in 10.0 mi WNW 3.5 mph - N/A   Partly Cloudy
10:58 PM 48.9 °F 47.3 °F 94% 30.13 in 10.0 mi NW 4.6 mph - N/A   Mostly Cloudy
11:58 PM 48.6 °F 46.9 °F 94% 30.15 in 10.0 mi West 3.5 mph - N/A   Overcast